Time,TemperatureF,DewpointF,PressureIn,WindDirection,WindDirectionDegrees,WindSpeedMPH,WindSpeedGustMPH,Humidity,HourlyPrecipIn,Conditions,Clouds,dailyrainin,SoftwareType,DateUTC
2013-11-17 00:08:00,62.9,61.0,28.96,South,169,5.0,7.0,92,0.00,,,0.14,weatherlink.com 1.10,2013-11-17 06:08:00,
2013-11-17 00:23:00,62.8,61.0,28.95,West,281,6.0,9.0,92,0.00,,,0.14,weatherlink.com 1.10,2013-11-17 06:23:00,
2013-11-17 00:38:00,62.8,61.0,28.94,East,96,6.0,9.0,93,0.00,,,0.14,weatherlink.com 1.10,2013-11-17 06:38:00,
2013-11-17 00:53:00,62.7,61.0,28.94,SE,130,3.0,8.0,93,0.00,,,0.14,weatherlink.com 1.10,2013-11-17 06:53:00,
2013-11-17 01:08:00,62.7,61.0,28.93,ESE,103,8.0,8.0,93,0.00,,,0.14,weatherlink.com 1.10,2013-11-17 07:08:00,
2013-11-17 01:23:00,63.1,61.0,28.93,SSW,198,6.0,9.0,93,0.00,,,0.14,weatherlink.com 1.10,2013-11-17 07:23:00,
2013-11-17 01:38:00,63.6,62.0,28.92,SE,124,4.0,11.0,93,0.00,,,0.14,weatherlink.com 1.10,2013-11-17 07:38:00,
2013-11-17 01:53:00,64.1,62.0,28.92,South,169,2.0,10.0,93,0.00,,,0.14,weatherlink.com 1.10,2013-11-17 07:53:00,
2013-11-17 02:08:00,64.3,62.0,28.92,SSE,148,3.0,15.0,92,0.00,,,0.14,weatherlink.com 1.10,2013-11-17 08:08:00,
2013-11-17 02:23:00,64.6,62.0,28.91,NNE,32,3.0,9.0,92,0.00,,,0.14,weatherlink.com 1.10,2013-11-17 08:23:00,
2013-11-17 02:38:00,65.0,63.0,28.90,SSE,154,4.0,12.0,92,0.00,,,0.14,weatherlink.com 1.10,2013-11-17 08:38:00,
2013-11-17 02:53:00,65.2,63.0,28.90,SE,128,4.0,12.0,91,0.00,,,0.14,weatherlink.com 1.10,2013-11-17 08:53:00,
2013-11-17 03:08:00,65.1,63.0,28.89,ENE,63,3.0,12.0,91,0.00,,,0.00,weatherlink.com 1.10,2013-11-17 09:08:00,
2013-11-17 03:23:00,65.3,63.0,28.88,SSW,204,4.0,13.0,91,0.00,,,0.00,weatherlink.com 1.10,2013-11-17 09:23:00,
2013-11-17 03:38:00,65.5,63.0,28.88,SSW,210,9.0,13.0,91,0.00,,,0.00,weatherlink.com 1.10,2013-11-17 09:38:00,
2013-11-17 03:53:00,65.8,63.0,28.87,ESE,112,2.0,16.0,90,0.00,,,0.00,weatherlink.com 1.10,2013-11-17 09:53:00,
2013-11-17 04:09:00,66.3,63.0,28.87,ESE,122,4.0,15.0,89,0.00,,,0.00,weatherlink.com 1.10,2013-11-17 10:09:00,
2013-11-17 04:24:00,66.6,63.0,28.87,South,176,9.0,14.0,88,0.00,,,0.00,weatherlink.com 1.10,2013-11-17 10:24:00,
2013-11-17 04:39:00,66.6,63.0,28.86,East,97,6.0,11.0,88,0.00,,,0.00,weatherlink.com 1.10,2013-11-17 10:39:00,
2013-11-17 04:54:00,66.7,63.0,28.86,SSE,160,5.0,17.0,88,0.00,,,0.00,weatherlink.com 1.10,2013-11-17 10:54:00,
2013-11-17 05:09:00,66.4,63.0,28.85,SW,221,7.0,11.0,88,0.00,,,0.00,weatherlink.com 1.10,2013-11-17 11:09:00,
2013-11-17 05:24:00,65.9,63.0,28.84,South,173,4.0,11.0,89,0.00,,,0.00,weatherlink.com 1.10,2013-11-17 11:24:00,
2013-11-17 05:39:00,65.9,63.0,28.84,South,184,4.0,18.0,89,0.00,,,0.00,weatherlink.com 1.10,2013-11-17 11:39:00,
2013-11-17 05:54:00,66.4,63.0,28.83,SE,146,10.0,14.0,88,0.00,,,0.00,weatherlink.com 1.10,2013-11-17 11:54:00,
2013-11-17 06:09:00,66.9,63.0,28.84,SSE,163,5.0,14.0,88,0.00,,,0.00,weatherlink.com 1.10,2013-11-17 12:09:00,
2013-11-17 06:24:00,67.4,64.0,28.84,SW,215,7.0,19.0,87,0.00,,,0.00,weatherlink.com 1.10,2013-11-17 12:24:00,
2013-11-17 06:39:00,67.8,64.0,28.84,SSE,167,5.0,16.0,86,0.00,,,0.00,weatherlink.com 1.10,2013-11-17 12:39:00,
2013-11-17 06:54:00,68.3,64.0,28.84,WSW,242,6.0,21.0,86,0.00,,,0.00,weatherlink.com 1.10,2013-11-17 12:54:00,
2013-11-17 07:09:00,68.7,64.0,28.83,South,175,14.0,18.0,85,0.00,,,0.00,weatherlink.com 1.10,2013-11-17 13:09:00,
2013-11-17 07:24:00,69.2,64.0,28.82,South,169,11.0,23.0,84,0.00,,,0.00,weatherlink.com 1.10,2013-11-17 13:24:00,
2013-11-17 07:39:00,69.3,64.0,28.81,SSW,197,6.0,24.0,83,0.00,,,0.00,weatherlink.com 1.10,2013-11-17 13:39:00,
2013-11-17 07:54:00,69.4,64.0,28.81,SSE,162,14.0,20.0,83,0.00,,,0.00,weatherlink.com 1.10,2013-11-17 13:54:00,
2013-11-17 08:09:00,69.8,64.0,28.81,ESE,121,10.0,22.0,82,0.00,,,0.00,weatherlink.com 1.10,2013-11-17 14:09:00,
2013-11-17 08:24:00,70.4,64.0,28.80,South,188,15.0,19.0,81,0.00,,,0.00,weatherlink.com 1.10,2013-11-17 14:24:00,
2013-11-17 08:39:00,71.4,65.0,28.80,SSE,149,6.0,23.0,79,0.00,,,0.00,weatherlink.com 1.10,2013-11-17 14:39:00,
2013-11-17 08:54:00,72.1,65.0,28.80,South,179,19.0,24.0,78,0.00,,,0.00,weatherlink.com 1.10,2013-11-17 14:54:00,
2013-11-17 09:09:00,73.1,65.0,28.80,SW,224,9.0,21.0,76,0.00,,,0.00,weatherlink.com 1.10,2013-11-17 15:09:00,
2013-11-17 09:24:00,73.6,65.0,28.80,SSE,147,5.0,23.0,74,0.00,,,0.00,weatherlink.com 1.10,2013-11-17 15:24:00,
2013-11-17 09:39:00,74.2,65.0,28.80,WSW,250,15.0,28.0,72,0.00,,,0.00,weatherlink.com 1.10,2013-11-17 15:39:00,
2013-11-17 09:54:00,74.6,65.0,28.79,SSW,194,8.0,29.0,72,0.00,,,0.00,weatherlink.com 1.10,2013-11-17 15:54:00,
2013-11-17 10:09:00,75.0,65.0,28.77,SSE,150,12.0,26.0,71,0.00,,,0.00,weatherlink.com 1.10,2013-11-17 16:09:00,
2013-11-17 10:25:00,75.0,64.0,28.76,SW,233,4.0,27.0,69,0.00,,,0.00,weatherlink.com 1.10,2013-11-17 16:25:00,
2013-11-17 10:40:00,73.4,63.0,28.75,SW,218,17.0,32.0,70,0.00,,,0.00,weatherlink.com 1.10,2013-11-17 16:40:00,
2013-11-17 10:55:00,74.8,64.0,28.74,SSW,204,17.0,22.0,68,0.00,,,0.00,weatherlink.com 1.10,2013-11-17 16:55:00,
2013-11-17 11:10:00,76.5,61.0,28.73,WSW,238,17.0,26.0,60,0.00,,,0.00,weatherlink.com 1.10,2013-11-17 17:10:00,
2013-11-17 11:25:00,73.9,63.0,28.74,South,191,16.0,34.0,68,0.04,,,0.04,weatherlink.com 1.10,2013-11-17 17:25:00,
2013-11-17 11:40:00,72.5,60.0,28.73,SW,228,21.0,35.0,64,0.04,,,0.04,weatherlink.com 1.10,2013-11-17 17:40:00,
2013-11-17 11:55:00,72.3,60.0,28.74,SW,232,19.0,28.0,65,0.04,,,0.04,weatherlink.com 1.10,2013-11-17 17:55:00,
2013-11-17 12:10:00,76.4,56.0,28.74,WSW,240,20.0,36.0,49,0.04,,,0.04,weatherlink.com 1.10,2013-11-17 18:10:00,
2013-11-17 12:25:00,71.9,55.0,28.79,SW,233,18.0,48.0,55,0.00,,,0.04,weatherlink.com 1.10,2013-11-17 18:25:00,
2013-11-17 12:40:00,73.5,48.0,28.81,WSW,243,24.0,37.0,41,0.00,,,0.04,weatherlink.com 1.10,2013-11-17 18:40:00,
2013-11-17 12:55:00,73.4,44.0,28.83,SW,226,31.0,35.0,35,0.00,,,0.04,weatherlink.com 1.10,2013-11-17 18:55:00,
2013-11-17 13:10:00,72.4,37.0,28.85,WNW,288,21.0,40.0,28,0.00,,,0.04,weatherlink.com 1.10,2013-11-17 19:10:00,
2013-11-17 13:25:00,71.8,37.0,28.87,West,281,28.0,37.0,28,0.00,,,0.04,weatherlink.com 1.10,2013-11-17 19:25:00,
2013-11-17 13:40:00,70.8,36.0,28.88,WSW,256,22.0,34.0,28,0.00,,,0.04,weatherlink.com 1.10,2013-11-17 19:40:00,
2013-11-17 13:55:00,70.7,36.0,28.89,West,277,32.0,33.0,28,0.00,,,0.04,weatherlink.com 1.10,2013-11-17 19:55:00,
2013-11-17 14:10:00,70.5,33.0,28.90,WSW,249,23.0,40.0,25,0.00,,,0.04,weatherlink.com 1.10,2013-11-17 20:10:00,
2013-11-17 14:25:00,70.3,34.0,28.91,West,270,13.0,28.0,26,0.00,,,0.04,weatherlink.com 1.10,2013-11-17 20:25:00,
2013-11-17 14:40:00,70.5,36.0,28.92,West,276,15.0,27.0,28,0.00,,,0.04,weatherlink.com 1.10,2013-11-17 20:40:00,
2013-11-17 14:55:00,69.9,34.0,28.93,West,270,9.0,23.0,27,0.00,,,0.04,weatherlink.com 1.10,2013-11-17 20:55:00,
2013-11-17 15:10:00,69.8,34.0,28.94,WSW,243,7.0,22.0,27,0.00,,,0.04,weatherlink.com 1.10,2013-11-17 21:10:00,
2013-11-17 15:25:00,69.4,35.0,28.95,SW,235,14.0,21.0,28,0.00,,,0.04,weatherlink.com 1.10,2013-11-17 21:25:00,
2013-11-17 15:40:00,69.1,33.0,28.96,West,278,13.0,26.0,26,0.00,,,0.04,weatherlink.com 1.10,2013-11-17 21:40:00,
2013-11-17 15:55:00,68.7,32.0,28.97,WSW,255,22.0,22.0,26,0.00,,,0.04,weatherlink.com 1.10,2013-11-17 21:55:00,
2013-11-17 16:10:00,68.3,31.0,28.98,WSW,248,13.0,34.0,25,0.00,,,0.04,weatherlink.com 1.10,2013-11-17 22:10:00,
2013-11-17 16:25:00,67.7,32.0,29.00,WSW,252,11.0,21.0,27,0.00,,,0.04,weatherlink.com 1.10,2013-11-17 22:25:00,
2013-11-17 16:40:00,67.1,33.0,29.00,West,263,8.0,19.0,28,0.00,,,0.04,weatherlink.com 1.10,2013-11-17 22:40:00,
2013-11-17 16:55:00,66.9,32.0,29.01,SSW,207,17.0,25.0,27,0.00,,,0.04,weatherlink.com 1.10,2013-11-17 22:55:00,
2013-11-17 17:10:00,66.7,31.0,29.02,WSW,243,11.0,23.0,26,0.00,,,0.04,weatherlink.com 1.10,2013-11-17 23:10:00,
2013-11-17 17:25:00,66.6,30.0,29.02,West,267,11.0,20.0,25,0.00,,,0.04,weatherlink.com 1.10,2013-11-17 23:25:00,
2013-11-17 17:40:00,66.4,29.0,29.04,WSW,257,18.0,23.0,25,0.00,,,0.04,weatherlink.com 1.10,2013-11-17 23:40:00,
2013-11-17 17:56:00,66.3,27.0,29.07,WSW,250,16.0,24.0,23,0.00,,,0.04,weatherlink.com 1.10,2013-11-17 23:56:00,
2013-11-17 18:11:00,65.8,25.0,29.09,WNW,303,8.0,27.0,21,0.00,,,0.04,weatherlink.com 1.10,2013-11-18 00:11:00,
2013-11-17 18:26:00,64.5,25.0,29.11,WNW,287,12.0,25.0,22,0.00,,,0.04,weatherlink.com 1.10,2013-11-18 00:26:00,
2013-11-17 18:41:00,63.6,25.0,29.12,WNW,295,11.0,24.0,23,0.00,,,0.04,weatherlink.com 1.10,2013-11-18 00:41:00,
2013-11-17 18:56:00,63.2,26.0,29.13,WNW,288,8.0,23.0,24,0.00,,,0.04,weatherlink.com 1.10,2013-11-18 00:56:00,
2013-11-17 19:11:00,62.6,26.0,29.14,WNW,284,10.0,23.0,25,0.00,,,0.04,weatherlink.com 1.10,2013-11-18 01:11:00,
2013-11-17 19:26:00,62.2,27.0,29.15,WNW,284,12.0,23.0,26,0.00,,,0.04,weatherlink.com 1.10,2013-11-18 01:26:00,
2013-11-17 19:41:00,61.9,28.0,29.16,West,263,8.0,16.0,28,0.00,,,0.04,weatherlink.com 1.10,2013-11-18 01:41:00,
2013-11-17 19:56:00,61.5,30.0,29.17,WNW,291,6.0,18.0,30,0.00,,,0.04,weatherlink.com 1.10,2013-11-18 01:56:00,
2013-11-17 20:11:00,61.2,31.0,29.19,NW,312,13.0,17.0,32,0.00,,,0.04,weatherlink.com 1.10,2013-11-18 02:11:00,
2013-11-17 20:26:00,57.5,39.0,29.21,WNW,299,16.0,19.0,50,0.00,,,0.04,weatherlink.com 1.10,2013-11-18 02:26:00,
2013-11-17 20:41:00,55.2,40.0,29.22,WNW,292,6.0,14.0,57,0.00,,,0.04,weatherlink.com 1.10,2013-11-18 02:41:00,
2013-11-17 20:56:00,54.1,40.0,29.22,NW,307,5.0,9.0,60,0.00,,,0.04,weatherlink.com 1.10,2013-11-18 02:56:00,
2013-11-17 21:11:00,53.5,40.0,29.23,NW,311,5.0,7.0,61,0.00,,,0.04,weatherlink.com 1.10,2013-11-18 03:11:00,
2013-11-17 21:26:00,53.5,40.0,29.24,WNW,297,6.0,9.0,61,0.00,,,0.04,weatherlink.com 1.10,2013-11-18 03:26:00,
2013-11-17 21:41:00,53.5,40.0,29.24,WNW,287,4.0,10.0,61,0.00,,,0.04,weatherlink.com 1.10,2013-11-18 03:41:00,
2013-11-17 21:56:00,53.1,40.0,29.25,WNW,291,5.0,10.0,61,0.00,,,0.04,weatherlink.com 1.10,2013-11-18 03:56:00,
2013-11-17 22:11:00,53.1,40.0,29.26,WNW,288,7.0,12.0,61,0.00,,,0.04,weatherlink.com 1.10,2013-11-18 04:11:00,
2013-11-17 22:26:00,52.7,40.0,29.27,WNW,285,5.0,10.0,62,0.00,,,0.04,weatherlink.com 1.10,2013-11-18 04:26:00,
2013-11-17 22:42:00,52.3,40.0,29.28,NW,309,6.0,10.0,63,0.00,,,0.04,weatherlink.com 1.10,2013-11-18 04:42:00,
2013-11-17 22:57:00,51.6,40.0,29.29,West,275,3.0,11.0,65,0.00,,,0.04,weatherlink.com 1.10,2013-11-18 04:57:00,
2013-11-17 23:12:00,51.0,40.0,29.30,WNW,298,5.0,8.0,66,0.00,,,0.04,weatherlink.com 1.10,2013-11-18 05:12:00,
2013-11-17 23:27:00,50.3,40.0,29.31,WNW,283,2.0,6.0,68,0.00,,,0.04,weatherlink.com 1.10,2013-11-18 05:27:00,
2013-11-17 23:42:00,49.8,40.0,29.32,WSW,256,3.0,6.0,69,0.00,,,0.04,weatherlink.com 1.10,2013-11-18 05:42:00,
2013-11-17 23:57:00,49.1,40.0,29.32,SW,230,2.0,5.0,70,0.00,,,0.04,weatherlink.com 1.10,2013-11-18 05:57:00,